Content
SEND FEEDBACK

Daily
Averages
Monthly
Summary
United States of America

LAKE MILLS, IOWA


Home > North America > United States > Iowa
Elevation: 1280 feet     Latitude: 43 25N     Longitude: 093 32W

WEATHER
 
SELECT A DAY
Number of Records: 116,987;   Date Range: 9/1/09 - 9/21/14
 
SHARE

PRINT THIS DATA

[ ← Previous Day ]
WEATHER ALMANAC - JANUARY 23, 2013
[ Next Day → ]
[ °C ]   °F
Weather ElementAverageHighLow
Temperature12.4 °F21.2 °F (11:55 am)-0.4 °F (11:15 pm)
Dewpoint2.6 °F10.4 °F (8:55 am)-11.2 °F (10:35 pm)
Humidity65.3 %79 % (1:15 am)49 % (3:15 pm)
Barometer30.24 in30.51 in (11:35 pm)30.11 in (4:55 am)
Wind Speed13.6 mph25.3 mph (2:15 pm)
Wind Gust32.2 mph (4:35 pm)
Weather ElementAverage
Visibility9.7 mi
Wind DirectionWNW (286 °)

Weather ElementTotal
Precipitation---
Heating Degree Days54.6 (Base 65)
Averaged from 70 records on January 23, 2013
WEATHER CONDITIONS BREAKOUT
WIND DIRECTION BREAKOUT
WEATHER BY HOUR - JANUARY 23, 2013
[ °C ]   °F
Local TimeTemperatureDewpointHumidityBarometerVisibilityWind DirectionWind SpeedGust SpeedPrecipitationEventsConditions
12:35 AM12.2 °F5.0 °F73 %30.20 in7.0 miSouth (170°)6.9 mphSnowLight Snow
12:55 AM12.2 °F5.0 °F73 %30.19 in10.0 miSouth (170°)6.9 mphOvercast
1:15 AM12.2 °F6.8 °F79 %30.18 in10.0 miSouth (170°)5.8 mphSnowLight Snow
1:35 AM12.2 °F6.8 °F79 %30.18 in10.0 miSouth (170°)4.6 mphOvercast
1:55 AM12.2 °F6.8 °F79 %30.18 in10.0 miSouth (170°)5.8 mphOvercast
2:15 AM14.0 °F6.8 °F73 %30.18 in10.0 miSouth (180°)6.9 mphOvercast
2:35 AM14.0 °F6.8 °F73 %30.18 in10.0 miSouth (190°)6.9 mphOvercast
2:55 AM14.0 °F6.8 °F73 %30.16 in10.0 miSouth (190°)6.9 mphOvercast
3:15 AM14.0 °F6.8 °F73 %30.15 in10.0 miSouth (190°)6.9 mphOvercast
3:35 AM14.0 °F6.8 °F73 %30.15 in10.0 miSouth (190°)6.9 mphOvercast
3:55 AM14.0 °F8.6 °F79 %30.14 in10.0 miSouth (190°)8.1 mphOvercast
4:15 AM14.0 °F8.6 °F79 %30.13 in10.0 miSouth (190°)8.1 mphOvercast
4:35 AM14.0 °F8.6 °F79 %30.12 in10.0 miSSW (200°)8.1 mphOvercast
4:55 AM15.8 °F8.6 °F73 %30.11 in10.0 miSSW (200°)6.9 mphOvercast
5:15 AM15.8 °F8.6 °F73 %30.12 in10.0 miSSW (210°)3.5 mphOvercast
5:35 AM15.8 °F8.6 °F73 %30.12 in10.0 miSSW (210°)6.9 mphOvercast
5:55 AM15.8 °F8.6 °F73 %30.12 in10.0 miSW (220°)8.1 mphOvercast
6:15 AM15.8 °F8.6 °F73 %30.12 in10.0 miSW (230°)6.9 mphOvercast
6:35 AM17.6 °F8.6 °F68 %30.12 in10.0 miSW (230°)5.8 mphOvercast
6:55 AM17.6 °F8.6 °F68 %30.11 in10.0 miSW (220°)9.2 mphOvercast
7:15 AM17.6 °F8.6 °F68 %30.11 in10.0 miSW (230°)6.9 mphOvercast
7:55 AM17.6 °F8.6 °F68 %30.12 in10.0 miWSW (250°)3.5 mphOvercast
8:15 AM17.6 °F8.6 °F68 %30.12 in10.0 miWest (260°)5.8 mphOvercast
8:35 AM15.8 °F8.6 °F73 %30.12 in10.0 miWest (270°)4.6 mphOvercast
8:55 AM15.8 °F10.4 °F79 %30.13 in10.0 miWest (280°)6.9 mphOvercast
9:15 AM17.6 °F10.4 °F73 %30.13 in10.0 miWNW (300°)8.1 mphOvercast
9:35 AM17.6 °F10.4 °F73 %30.14 in10.0 miNW (310°)10.4 mphOvercast
9:55 AM19.4 °F10.4 °F68 %30.15 in10.0 miNW (320°)13.8 mphSnowLight Snow
10:15 AM19.4 °F10.4 °F68 %30.16 in5.0 miNNW (330°)16.1 mphSnowLight Snow
10:35 AM19.4 °F10.4 °F68 %30.16 in7.0 miNW (320°)11.5 mph18.4 mphSnowLight Snow
10:55 AM19.4 °F10.4 °F68 %30.17 in10.0 miNW (310°)13.8 mph18.4 mphOvercast
11:15 AM19.4 °F10.4 °F68 %30.18 in10.0 miNW (310°)16.1 mph19.6 mphMostly Cloudy
11:35 AM19.4 °F10.4 °F68 %30.18 in10.0 miNNW (330°)13.8 mph21.9 mphMostly Cloudy
11:55 AM21.2 °F8.6 °F58 %30.17 in10.0 miNW (320°)17.3 mph25.3 mphMostly Cloudy
12:15 PM21.2 °F8.6 °F58 %30.17 in10.0 miNW (320°)18.4 mphMostly Cloudy
12:35 PM21.2 °F10.4 °F63 %30.18 in7.0 miNW (320°)21.9 mph27.6 mphSnowLight Snow
12:55 PM19.4 °F10.4 °F68 %30.17 in7.0 miNW (320°)16.1 mph26.5 mphSnowLight Snow
1:15 PM21.2 °F10.4 °F63 %30.17 in7.0 miNW (310°)15.0 mph23.0 mphSnowLight Snow
1:35 PM19.4 °F8.6 °F63 %30.17 in10.0 miNW (320°)20.7 mph27.6 mphMostly Cloudy
1:55 PM21.2 °F6.8 °F54 %30.17 in10.0 miNW (320°)21.9 mph27.6 mphScattered Clouds
2:15 PM19.4 °F6.8 °F58 %30.19 in10.0 miNNW (330°)25.3 mph31.1 mphScattered Clouds
2:35 PM19.4 °F5.0 °F54 %30.20 in10.0 miNW (320°)21.9 mph29.9 mphScattered Clouds
2:55 PM17.6 °F3.2 °F53 %30.21 in10.0 miNNW (330°)20.7 mph28.8 mphScattered Clouds
3:15 PM17.6 °F1.4 °F49 %30.23 in10.0 miNNW (330°)21.9 mph29.9 mphClear
3:35 PM15.8 °F-0.4 °F49 %30.24 in10.0 miNNW (330°)20.7 mph26.5 mphClear
3:55 PM14.0 °F-0.4 °F53 %30.24 in10.0 miNW (310°)21.9 mph29.9 mphClear
4:15 PM12.2 °F-0.4 °F57 %30.26 in10.0 miNW (320°)21.9 mph31.1 mphClear
4:35 PM10.4 °F-2.2 °F57 %30.27 in10.0 miNW (320°)19.6 mph32.2 mphClear
4:55 PM10.4 °F-2.2 °F57 %30.28 in10.0 miNW (310°)18.4 mph28.8 mphClear
5:15 PM8.6 °F-4.0 °F57 %30.30 in10.0 miNW (310°)23.0 mph27.6 mphClear
5:35 PM8.6 °F-4.0 °F57 %30.32 in10.0 miNW (320°)16.1 mph26.5 mphScattered Clouds
5:55 PM6.8 °F-4.0 °F61 %30.33 in10.0 miNW (320°)21.9 mph28.8 mphMostly Cloudy
6:15 PM6.8 °F-4.0 °F61 %30.34 in10.0 miNNW (330°)21.9 mph32.2 mphOvercast
6:35 PM5.0 °F-4.0 °F66 %30.36 in10.0 miNNW (340°)20.7 mph28.8 mphMostly Cloudy
6:55 PM5.0 °F-4.0 °F66 %30.37 in7.0 miNNW (340°)18.4 mph27.6 mphMostly Cloudy
7:15 PM5.0 °F-4.0 °F66 %30.38 in10.0 miNNW (330°)20.7 mph27.6 mphOvercast
7:35 PM3.2 °F-9.4 °F56 %30.39 in10.0 miNorth (350°)21.9 mph27.6 mphScattered Clouds
7:55 PM3.2 °F-9.4 °F56 %30.39 in10.0 miNNW (340°)17.3 mph26.5 mphClear
8:15 PM3.2 °F-9.4 °F56 %30.41 in10.0 miNorth (350°)13.8 mphClear
8:35 PM1.4 °F-9.4 °F61 %30.41 in10.0 miNNW (340°)16.1 mph27.6 mphClear
8:55 PM1.4 °F-9.4 °F61 %30.43 in10.0 miNorth (350°)17.3 mphClear
9:15 PM1.4 °F-9.4 °F61 %30.44 in10.0 miNNW (340°)19.6 mph24.2 mphClear
9:35 PM1.4 °F-9.4 °F61 %30.45 in10.0 miNNW (340°)17.3 mph21.9 mphClear
9:55 PM1.4 °F-9.4 °F61 %30.45 in10.0 miNorth (350°)13.8 mphClear
10:15 PM1.4 °F-9.4 °F61 %30.46 in10.0 miNorth (350°)15.0 mphClear
10:35 PM1.4 °F-11.2 °F56 %30.46 in10.0 miNorth (360°)13.8 mph20.7 mphClear
10:55 PM1.4 °F-11.2 °F56 %30.47 in10.0 miNorth (360°)15.0 mphClear
11:15 PM-0.4 °F-11.2 °F60 %30.49 in10.0 miNorth (350°)13.8 mph18.4 mphClear
11:35 PM-0.4 °F-11.2 °F60 %30.51 in10.0 miNorth (350°)12.7 mphClear
11:55 PM-0.4 °F-11.2 °F60 %30.51 in10.0 miNorth (360°)10.4 mphClear
Hourly data recorded from KFXY, located miles away from Lake Mills, Iowa







STORIES FROM OUR PARTNERS